Regional Weather Roundup
Issued by NWS Raleigh/Durham, NC

Home | Current Version | Previous Version | Text Only | Print | Product List | Glossary On
Versions: 1 2 3 4 5 6 7 8 9 10 11 12 13 14 15 16 17 18 19 20 21 22 23 24 25 26 27 28 29 30 31 32 33 34 35 36 37 38 39 40 41 42 43 44 45 46 47 48 49 50
000
ASUS42 KRAH 012310
RWRRAH
NORTH CAROLINA WEATHER ROUNDUP
NATIONAL WEATHER SERVICE RALEIGH NC
600 PM EST SUN MAR 01 2015

NOTE: "FAIR" INDICATES FEW OR NO CLOUDS BELOW 12,000 FEET WITH NO
SIGNIFICANT WEATHER AND/OR OBSTRUCTIONS TO VISIBILITY.

NCZ001-053-055-056-065-067-020000-
WESTERN NORTH CAROLINA

CITY           SKY/WX    TMP DP  RH WIND       PRES   REMARKS
ASHEVILLE      MOCLDY    51  44  77 S5        30.31F
JEFFERSON      CLOUDY    53  39  59 W9        30.28S
MORGANTON      CLOUDY    42  39  88 CALM      30.38F
HICKORY        CLOUDY    40  37  89 CALM      30.34F FOG
RUTHERFORDTON  CLOUDY    41  40  98 CALM      30.37S
MOUNT AIRY     CLOUDY    40  35  81 CALM      30.35F
BOONE          MOCLDY    44  37  76 W8        30.29S
$$

NCZ021-022-025-041-071-084-088-020000-
CENTRAL NORTH CAROLINA

CITY           SKY/WX    TMP DP  RH WIND       PRES   REMARKS
CHARLOTTE      CLOUDY    39  36  89 SW5       30.38F FOG
GREENSBORO     CLOUDY    36  34  92 SW6       30.35S FOG     WCI  31
WINSTON-SALEM  CLOUDY    39  34  82 CALM      30.36F
RALEIGH-DURHAM CLOUDY    34  31  88 SE3       30.37F FOG
FORT BRAGG     LGT RAIN  37  35  94 CALM      30.38F
FAYETTEVILLE   CLOUDY    37  36  96 CALM      30.39F
BURLINGTON     CLOUDY    35  32  88 SW3       30.37S
LAURINBURG     CLOUDY    38  36  92 CALM      30.41S
$$

NCZ011-015-027-028-043-044-047-080-103-020000-
NORTHEASTERN NORTH CAROLINA

CITY           SKY/WX    TMP DP  RH WIND       PRES   REMARKS
ROCKY MT-WILSO LGT RAIN  34  33  96 CALM      30.38F FOG
GREENVILLE     DRIZZLE   36  34  93 N5        30.39F WCI  32
WASHINGTON     DRIZZLE   37  36  94 NW6       30.39S WCI  33
ELIZABETH CITY LGT RAIN  41  39  93 W15       30.38R VSB 1
MANTEO         CLOUDY    45  45 100 S8        30.32F
CAPE HATTERAS  CLOUDY    51  49  92 S12       30.33F
$$

NCZ078-087-090-091-093-098-101-020000-
SOUTHEASTERN NORTH CAROLINA

CITY           SKY/WX    TMP DP  RH WIND       PRES   REMARKS
LUMBERTON      CLOUDY    39  37  92 N6        30.39S FOG     WCI  35
GOLDSBORO      MIX PCPN  37  36  93 CALM      30.37S
KENANSVILLE    CLOUDY    37  37  97 NW7       30.41R WCI  32
NEW BERN       CLOUDY    46  44  93 NW5       30.37S
CHERRY POINT   RAIN      52  50  93 W6        30.36F
BEAUFORT       CLOUDY    58  55  90 W7        30.34F
JACKSONVILLE   CLOUDY    48  45  89 NW7       30.36S
WILMINGTON     LGT RAIN  49  46  90 NW5       30.35F FOG
$$




USA.gov is the U.S. government's official web portal to all federal, state and local government web resources and services.